Riviera Beach, FL (33404)

2:53 AM EDT on July 25, 2016 (GMT -0400)
Gardenia Gardens | | Change Station

Elev 7 ft 26.82 °N, 80.10 °W | Updated 6 minutes ago

Scattered Clouds
Scattered Clouds
73.8 °F
Feels Like 72 °F
N
0.0
Wind Variable Wind from WSW

Today
High -- | Low -- °F
--% Chance of Precip.
Yesterday
High -- | Low -- °F
Precip. -- in
Pressure 30.07 in
Visibility 10.0 miles
Clouds Few 12000 ft
Scattered Clouds 25000 ft
Heat Index 72 °F
Dew Point 70 °F
Humidity 88%
Rainfall 0.00 in
Snow Depth Not available.
6:41 AM 8:11 PM
Waning Gibbous, 69% visible
METAR KPBI 250553Z 30003KT 10SM FEW120 SCT250 26/22 A3007 RMK AO2 SLP183 T02560222 10283 20256 58002
Pressure 30.07 in
Visibility 10.0 miles
Clouds Few 12000 ft
Scattered Clouds 25000 ft
Heat Index 72 °F
Dew Point 70 °F
Humidity 88%
Rainfall 0.00 in
Snow Depth Not available.
6:41 AM 8:11 PM
Waning Gibbous, 69% visible
METAR KPBI 250553Z 30003KT 10SM FEW120 SCT250 26/22 A3007 RMK AO2 SLP183 T02560222 10283 20256 58002

10-Day Weather Forecast

Almanac

Astronomy

Jul. 25, 2016 Rise Set
Actual Time
Civil Twilight
Nautical Twilight
Astronomical Twilight
Moon
Length of Visible Light
Length of Day
Tomorrow will be .
, % of the Moon is Illuminated

Today's Extremes

State Highs State Lows

Community

WunderPhotos

Upload Photos

1,927,275 photos uploaded!

WunderBlog® & News

Nearby

Air Quality

  Air Quality AQ Index Pollutant
Not available.

Snow Depth

Station Depth Elevation

Earthquake Activity

City Distance Mag. Time & Date
Minimum magnitude displayed is 2.5.

Coastal Water Temperatures

Place Temperature

Stations

Nearby Weather Stations

Station Location Temp. Windchill Dew Point Humidity Wind Precip. Elev Updated Type
                   

Watches & Warnings

There are currently no watches in effect.